STARLINK-35308

Last updated on Mon Oct 20 2025 00:02:07 GMT+0000 (Coordinated Universal Time)

1 65848U 25221AB 25292.25002315 -.01562558 00000+0 -28720-1 0 9994 2 65848 53.1604 27.7715 0001015 91.2645 273.8843 15.51582339 4433
UTC large
Height (km)
Speed (km/s)
/
Latitude / Longitude
Inclination (degrees)
Orbital Period (minutes)
Azimuth
Elevation
Range (km)
Doppler Factor

Next 0 passes for location: London (51.5072 / 0.1276)

Sorry there are no passes over London.